K0JSC-13 Weather Reports


Display with metric or nautical units.
time (UTC)temp
F
wind
direction
speed
MPH
gust
MPH
rain 1hr
in
rain 24hr
in
rain mn
in
humidity
%
barometer
mb
20260903060903 74 299 4.0 10.0 0.00 0.00 0.00 35 987.0
20260903060006 74 299 4.0 12.0 0.00 0.00 0.00 34 987.0
20260903055403 74 291 4.0 11.0 0.00 0.00 0.00 35 987.0
20260903054503 74 287 4.0 11.0 0.00 0.00 0.00 34 987.1
20260903053818 74 302 5.0 12.0 0.00 0.00 0.00 35 987.0
20260903052703 75 313 6.0 11.0 0.00 0.00 0.00 34 987.1
20260903051803 76 318 6.0 11.0 0.00 0.00 0.00 33 987.1
20260903050903 76 316 5.0 10.0 0.00 0.00 0.00 33 987.1
20260903050003 77 314 5.0 11.0 0.00 0.00 0.00 32 987.0
20260903045403 77 320 6.0 11.0 0.00 0.00 0.00 31 987.0
20260903044503 77 327 6.0 11.0 0.00 0.00 0.00 31 987.0
20260903043818 77 321 7.0 14.0 0.00 0.00 0.00 31 986.8
20260903042704 76 315 5.0 11.0 0.00 0.00 0.00 32 986.7
20260903041803 77 313 3.0 7.0 0.00 0.00 0.00 32 986.8
20260903041118 77 315 5.0 10.0 0.00 0.00 0.00 31 986.7
20260903040004 76 316 6.0 12.0 0.00 0.00 0.00 30 986.4
20260903035403 76 309 3.0 8.0 0.00 0.00 0.00 32 986.3
20260903034718 75 282 3.0 8.0 0.00 0.00 0.00 31 986.3
20260903033603 74 278 2.0 7.0 0.00 0.00 0.00 35 986.1
20260903032703 74 333 2.0 7.0 0.00 0.00 0.00 32 985.9
20260903031804 74 288 1.0 3.0 0.00 0.00 0.00 35 985.9
20260903030903 74 305 2.0 5.0 0.00 0.00 0.00 34 985.6
20260903030003 73 333 2.0 5.0 0.00 0.00 0.00 37 985.4
20260903025403 73 335 2.0 5.0 0.00 0.00 0.00 36 985.3
20260903024503 73 344 2.0 5.0 0.00 0.00 0.00 39 985.2
20260903023603 73 288 1.0 6.0 0.00 0.00 0.00 38 985.0
20260903022703 73 326 2.0 5.0 0.00 0.00 0.00 38 985.0
20260903021804 74 291 3.0 7.0 0.00 0.00 0.00 42 985.0
20260903020904 75 139 1.0 3.0 0.00 0.00 0.00 39 984.8
20260903020003 76 0 0.0 0.0 0.00 0.00 0.00 41 984.7
20260903015403 77 140 0.0 2.0 0.00 0.00 0.00 37 984.6
20260903014503 78 140 1.0 3.0 0.00 0.00 0.00 35 984.4
20260903013603 81 140 1.0 3.0 0.00 0.00 0.00 32 984.4
20260903012703 83 140 1.0 3.0 0.00 0.00 0.00 29 984.5
20260903011803 85 140 1.0 3.0 0.00 0.00 0.00 26 984.6
20260903010903 86 140 2.0 4.0 0.00 0.00 0.00 23 984.6
20260903010218 87 138 3.0 10.0 0.00 0.00 0.00 21 984.6
20260903005617 87 164 4.0 8.0 0.00 0.00 0.00 20 984.6
20260903004503 88 208 5.0 11.0 0.00 0.00 0.00 21 984.5
20260903003816 88 220 6.0 11.0 0.00 0.00 0.00 20 984.4
20260903002703 90 174 4.0 11.0 0.00 0.00 0.00 24 984.3
20260903001803 90 145 3.0 8.0 0.00 0.00 0.00 21 984.2
20260903000903 90 134 4.0 10.0 0.00 0.00 0.00 21 984.2
20260903000004 90 121 5.0 11.0 0.00 0.00 0.00 20 984.3
20260902235617 90 113 3.0 11.0 0.00 0.00 0.00 20 984.2
20260902234503 89 38 1.0 3.0 0.00 0.00 0.00 21 984.2
20260902233603 89 37 1.0 3.0 0.00 0.00 0.00 21 984.2
20260902232703 88 31 3.0 5.0 0.00 0.00 0.00 21 984.3
20260902231803 89 304 2.0 4.0 0.00 0.00 0.00 25 984.4
20260902230903 90 264 2.0 4.0 0.00 0.00 0.00 25 984.6
20260902230217 90 172 1.0 2.0 0.00 0.00 0.00 22 984.8
20260902225617 91 170 0.0 4.0 0.00 0.00 0.00 22 984.9
20260902224504 93 158 1.0 3.0 0.00 0.00 0.00 18 985.1
20260902223817 93 176 2.0 5.0 0.00 0.00 0.00 19 985.2
20260902222703 93 239 3.0 9.0 0.00 0.00 0.00 18 985.4
20260902221803 93 267 3.0 9.0 0.00 0.00 0.00 20 985.4
20260902220903 92 242 4.0 9.0 0.00 0.00 0.00 17 985.6
20260902220003 92 213 6.0 11.0 0.00 0.00 0.00 18 985.7
20260902215403 92 213 7.0 14.0 0.00 0.00 0.00 18 985.8
20260902214503 92 237 8.0 16.0 0.00 0.00 0.00 19 985.9
20260902213604 92 245 7.0 16.0 0.00 0.00 0.00 19 985.9
20260902212703 92 219 6.0 12.0 0.00 0.00 0.00 18 986.2
20260902211803 92 245 7.0 14.0 0.00 0.00 0.00 19 986.3
20260902210903 92 245 7.0 14.0 0.00 0.00 0.00 21 986.4
20260902210003 91 239 9.0 16.0 0.00 0.00 0.00 19 986.5
20260902205403 91 244 6.0 16.0 0.00 0.00 0.00 19 986.6
20260902204503 91 245 6.0 16.0 0.00 0.00 0.00 16 986.8
20260902203603 91 234 3.0 12.0 0.00 0.00 0.00 20 986.9
20260902202704 90 310 3.0 8.0 0.00 0.00 0.00 20 987.0
20260902201803 90 317 1.0 4.0 0.00 0.00 0.00 24 987.2
20260902201117 89 336 3.0 10.0 0.00 0.00 0.00 21 987.3
20260902200004 89 321 6.0 12.0 0.00 0.00 0.00 22 987.5
20260902195403 89 322 5.0 12.0 0.00 0.00 0.00 23 987.6
20260902194503 88 346 3.0 11.0 0.00 0.00 0.00 23 987.8
20260902193603 88 222 3.0 11.0 0.00 0.00 0.00 21 987.9
20260902192703 88 8 1.0 4.0 0.00 0.00 0.00 22 988.0
20260902191804 88 302 4.0 11.0 0.00 0.00 0.00 24 988.1
20260902191116 88 312 4.0 11.0 0.00 0.00 0.00 23 988.3
20260902190003 87 49 2.0 6.0 0.00 0.00 0.00 22 988.6
20260902185403 87 44 4.0 6.0 0.00 0.00 0.00 24 988.8
20260902184717 87 325 5.0 12.0 0.00 0.00 0.00 25 989.0
20260902183603 87 301 4.0 11.0 0.00 0.00 0.00 26 989.1
20260902182703 87 293 3.0 9.0 0.00 0.00 0.00 27 989.3
20260902182017 86 286 1.0 4.0 0.00 0.00 0.00 25 989.4
20260902180904 86 269 4.0 12.0 0.00 0.00 0.00 26 989.7
20260902180005 86 231 7.0 13.0 0.00 0.00 0.00 25 990.0
20260902175617 86 241 6.0 13.0 0.00 0.00 0.00 23 989.9
20260902174503 85 242 6.0 13.0 0.00 0.00 0.00 25 990.1
20260902173603 85 239 5.0 14.0 0.00 0.00 0.00 24 990.2
20260902172703 85 294 4.0 11.0 0.00 0.00 0.00 27 990.3
20260902171803 85 252 7.0 27.0 0.00 0.00 0.00 28 990.5
20260902170903 84 254 6.0 12.0 0.00 0.00 0.00 26 990.7
20260902170004 84 260 5.0 14.0 0.00 0.00 0.00 26 990.8
20260902165616 84 254 6.0 18.0 0.00 0.00 0.00 28 990.8
20260902164503 83 259 8.0 21.0 0.00 0.00 0.00 25 990.8
20260902163817 83 287 7.0 15.0 0.00 0.00 0.00 30 990.8
20260902162703 82 296 6.0 14.0 0.00 0.00 0.00 28 991.0
20260902161803 82 312 8.0 14.0 0.00 0.00 0.00 29 991.1
20260902160903 81 307 6.0 11.0 0.00 0.00 0.00 31 991.1
20260902160216 81 320 8.0 15.0 0.00 0.00 0.00 33 991.2
20260902155404 80 316 7.0 17.0 0.00 0.00 0.00 32 991.2
20260902154503 80 315 6.0 11.0 0.00 0.00 0.00 31 991.3
20260902153603 80 317 6.0 11.0 0.00 0.00 0.00 32 991.4
20260902152918 80 321 4.0 10.0 0.00 0.00 0.00 33 991.4
20260902151803 78 290 1.0 4.0 0.00 0.00 0.00 37 991.6
20260902150903 77 325 2.0 4.0 0.00 0.00 0.00 36 991.7
20260902150004 76 325 2.0 4.0 0.00 0.00 0.00 38 991.9
20260902145403 76 323 2.0 4.0 0.00 0.00 0.00 37 991.9
20260902144719 76 323 2.0 4.0 0.00 0.00 0.00 39 992.0
20260902143603 75 317 2.0 5.0 0.00 0.00 0.00 40 992.0
20260902142705 73 320 1.0 5.0 0.00 0.00 0.00 42 991.9
20260902142017 72 331 0.0 1.0 0.00 0.00 0.00 42 992.1
20260902141116 70 329 2.0 5.0 0.00 0.00 0.00 45 992.1
20260902140003 68 329 2.0 6.0 0.00 0.00 0.00 48 992.0
20260902135403 68 334 2.0 6.0 0.00 0.00 0.00 50 992.0
20260902134503 66 312 3.0 7.0 0.00 0.00 0.00 51 992.0
20260902133604 65 302 2.0 8.0 0.00 0.00 0.00 51 991.9
20260902132703 64 308 2.0 7.0 0.00 0.00 0.00 52 991.8
20260902131803 64 303 3.0 8.0 0.00 0.00 0.00 51 991.7
20260902130903 63 298 5.0 9.0 0.00 0.00 0.00 53 991.7
20260902130003 62 293 3.0 8.0 0.00 0.00 0.00 53 991.6
20260902125617 62 297 4.0 8.0 0.00 0.00 0.00 53 991.7
20260902124503 63 318 5.0 9.0 0.00 0.00 0.00 52 991.6
20260902123604 63 314 4.0 8.0 0.00 0.00 0.00 52 991.5
20260902122917 63 312 4.0 8.0 0.00 0.00 0.00 52 991.3
20260902122019 63 307 5.0 11.0 0.00 0.00 0.00 51 991.2
20260902120903 64 296 3.0 7.0 0.00 0.00 0.00 50 991.1
20260902120217 64 308 6.0 11.0 0.00 0.00 0.00 51 991.0
20260902115403 64 319 7.0 12.0 0.00 0.00 0.00 52 990.9
20260902114503 63 316 6.0 11.0 0.00 0.00 0.00 51 990.8
20260902113603 62 305 5.0 10.0 0.00 0.00 0.00 54 990.8
20260902112703 62 307 3.0 6.0 0.00 0.00 0.00 55 990.7
20260902111804 63 303 4.0 8.0 0.00 0.00 0.00 55 990.8
20260902110903 63 302 3.0 7.0 0.00 0.00 0.00 54 990.7
20260902110005 64 317 4.0 8.0 0.00 0.00 0.00 53 990.7
20260902105403 63 330 4.0 8.0 0.00 0.00 0.00 53 990.8
20260902104503 63 336 4.0 8.0 0.00 0.00 0.00 55 990.8
20260902103603 63 338 3.0 6.0 0.00 0.00 0.00 54 990.7
20260902102703 64 330 3.0 6.0 0.00 0.00 0.00 53 990.7
20260902101803 64 332 4.0 9.0 0.00 0.00 0.00 53 990.7
20260902100904 64 318 3.0 6.0 0.00 0.00 0.00 54 990.8
20260902100003 65 318 4.0 8.0 0.00 0.00 0.00 52 990.6
20260902095403 66 312 4.0 8.0 0.00 0.00 0.00 51 990.7
20260902094503 66 325 6.0 11.0 0.00 0.00 0.00 50 990.7
20260902093603 66 332 7.0 12.0 0.00 0.00 0.00 50 990.7
20260902092703 66 329 6.0 11.0 0.00 0.00 0.00 50 990.7
20260902091803 66 327 6.0 10.0 0.00 0.00 0.00 51 990.6
20260902090903 66 339 2.0 10.0 0.00 0.00 0.00 53 990.6
20260902090004 63 74 1.0 5.0 0.00 0.00 0.00 59 990.7
20260902085618 63 76 1.0 4.0 0.00 0.00 0.00 61 990.7
20260902084503 61 73 1.0 3.0 0.00 0.00 0.00 64 990.7
20260902083816 62 71 1.0 3.0 0.00 0.00 0.00 65 990.6
20260902082917 62 75 0.0 1.0 0.00 0.00 0.00 64 990.7
20260902081803 62 75 1.0 4.0 0.00 0.00 0.00 61 990.7
20260902080903 64 72 2.0 5.0 0.00 0.00 0.00 58 990.7
20260902080003 65 75 0.0 4.0 0.00 0.00 0.00 55 990.7
20260902075404 66 78 0.0 3.0 0.00 0.00 0.00 54 990.8
20260902074503 67 83 1.0 8.0 0.00 0.00 0.00 53 990.7
20260902073603 67 77 0.0 2.0 0.00 0.00 0.00 53 990.7
20260902072703 67 78 0.0 1.0 0.00 0.00 0.00 55 990.7
20260902071803 66 82 0.0 4.0 0.00 0.00 0.00 55 990.6
20260902070903 66 80 0.0 4.0 0.00 0.00 0.00 59 990.6
20260902070004 64 65 0.0 2.0 0.00 0.00 0.00 62 990.4
20260902065403 64 67 0.0 1.0 0.00 0.00 0.00 62 990.2
20260902064504 66 69 0.0 1.0 0.00 0.00 0.00 59 990.4
20260902063603 67 74 0.0 2.0 0.00 0.00 0.00 54 990.2
20260902062703 67 72 0.0 2.0 0.00 0.00 0.00 53 990.2
20260902061803 68 77 0.0 2.0 0.00 0.00 0.00 54 990.1